FW4110 Weather Reports


Display with metric or nautical units.
time (UTC)temp
F
wind
direction
speed
MPH
gust
MPH
rain 1hr
in
rain 24hr
in
rain mn
in
humidity
%
barometer
mb
20260904073023 80 162 1.0 3.0 0.00 0.00 0.00 88 1015.6
20260904071517 80 164 0.0 1.0 0.00 0.00 0.00 88 1015.7
20260904070011 81 169 0.0 1.0 0.00 0.00 0.00 87 1015.6
20260904064506 82 170 0.0 3.0 0.00 0.00 0.00 86 1015.7
20260904063123 82 168 1.0 4.0 0.00 0.00 0.00 86 1015.6
20260904061604 82 161 1.0 4.0 0.00 0.00 0.00 86 1015.8
20260904060101 82 159 0.0 2.0 0.00 0.00 0.00 87 1015.7
20260904054558 82 156 1.0 3.0 0.00 0.00 0.00 87 1015.7
20260904053054 83 153 1.0 4.0 0.00 0.00 0.00 86 1015.7
20260904051556 83 185 2.0 5.0 0.00 0.00 0.00 86 1015.5
20260904050048 84 180 1.0 4.0 0.00 0.00 0.00 85 1015.4
20260904044544 84 173 3.0 6.0 0.00 0.00 0.00 85 1015.5
20260904043046 85 160 3.0 7.0 0.00 0.00 0.00 84 1015.6
20260904041539 85 163 2.0 6.0 0.00 0.00 0.00 83 1015.6
20260904040038 85 151 2.0 4.0 0.00 0.00 0.00 83 1015.5
20260904034542 86 182 2.0 6.0 0.00 0.00 0.00 82 1015.5
20260904033033 86 135 2.0 4.0 0.00 0.00 0.00 81 1015.4
20260904031532 87 190 0.0 5.0 0.00 0.00 0.00 80 1015.4
20260904030031 87 171 2.0 5.0 0.00 0.00 0.00 80 1015.4
20260904024528 87 167 1.0 5.0 0.00 0.00 0.00 80 1015.3
20260904023026 87 181 0.0 3.0 0.00 0.00 0.00 80 1015.1
20260904021528 87 176 0.0 4.0 0.00 0.00 0.00 79 1015.1
20260904020024 87 148 1.0 3.0 0.00 0.00 0.00 79 1014.9
20260904014521 88 161 1.0 3.0 0.00 0.00 0.00 79 1014.7
20260904013019 88 176 0.0 1.0 0.00 0.00 0.00 78 1014.6
20260904011519 89 169 0.0 2.0 0.00 0.00 0.00 77 1014.6
20260904010016 89 168 0.0 2.0 0.00 0.00 0.00 76 1014.4
20260904004513 90 163 0.0 1.0 0.00 0.00 0.00 75 1014.4
20260904003019 91 171 0.0 2.0 0.00 0.00 0.00 73 1014.3
20260904001514 93 179 0.0 2.0 0.00 0.00 0.00 72 1014.1
20260904000007 94 171 1.0 4.0 0.00 0.00 0.00 69 1014.0
20260903234506 95 171 2.0 5.0 0.00 0.00 0.00 68 1014.1
20260903233005 96 256 1.0 7.0 0.00 0.00 0.00 67 1014.0
20260903231515 97 160 1.0 4.0 0.00 0.00 0.00 64 1014.0
20260903230002 97 287 1.0 5.0 0.00 0.00 0.00 63 1014.0
20260903224504 98 137 2.0 7.0 0.00 0.00 0.00 62 1014.0
20260903223059 99 157 2.0 9.0 0.00 0.00 0.00 63 1013.9
20260903221559 99 175 0.0 6.0 0.00 0.00 0.00 61 1014.0
20260903220054 98 321 1.0 4.0 0.00 0.00 0.00 61 1013.9
20260903214607 100 254 0.0 6.0 0.00 0.00 0.00 60 1014.1
20260903213058 100 290 2.0 6.0 0.00 0.00 0.00 60 1014.0
20260903211545 99 246 3.0 9.0 0.00 0.00 0.00 59 1014.3
20260903210059 99 165 2.0 8.0 0.00 0.00 0.00 61 1014.3
20260903204546 98 126 1.0 7.0 0.00 0.00 0.00 62 1014.5
20260903203041 98 167 5.0 10.0 0.00 0.00 0.00 62 1014.6
20260903201536 99 246 2.0 6.0 0.00 0.00 0.00 61 1014.8
20260903200031 99 282 2.0 6.0 0.00 0.00 0.00 62 1014.9
20260903194523 98 317 0.0 8.0 0.00 0.00 0.00 62 1015.1
20260903193017 98 202 2.0 5.0 0.00 0.00 0.00 62 1015.4
20260903191514 97 357 3.0 8.0 0.00 0.00 0.00 63 1015.6
20260903190007 97 211 3.0 11.0 0.00 0.00 0.00 64 1015.9
20260903184600 96 205 2.0 6.0 0.00 0.00 0.00 65 1016.2
20260903183057 96 249 2.0 10.0 0.00 0.00 0.00 64 1016.3
20260903181549 96 258 2.0 9.0 0.00 0.00 0.00 65 1016.4
20260903180044 96 263 4.0 9.0 0.00 0.00 0.00 66 1016.5
20260903174536 95 350 2.0 12.0 0.00 0.00 0.00 67 1016.7
20260903173031 95 351 2.0 10.0 0.00 0.00 0.00 68 1016.8
20260903171523 94 243 3.0 10.0 0.00 0.00 0.00 70 1016.9
20260903170017 94 339 4.0 9.0 0.00 0.00 0.00 69 1017.0
20260903164511 93 240 0.0 5.0 0.00 0.00 0.00 72 1017.2
20260903163005 92 229 2.0 8.0 0.00 0.00 0.00 73 1017.3
20260903161559 92 329 1.0 7.0 0.00 0.00 0.00 74 1017.3
20260903160104 92 258 2.0 7.0 0.00 0.00 0.00 75 1017.4
20260903154604 91 282 1.0 7.0 0.00 0.00 0.00 76 1017.3
20260903153042 91 273 2.0 5.0 0.00 0.00 0.00 75 1017.4
20260903151539 91 282 1.0 6.0 0.00 0.00 0.00 76 1017.5
20260903150036 91 249 1.0 4.0 0.00 0.00 0.00 75 1017.3
20260903144531 89 311 1.0 5.0 0.00 0.00 0.00 78 1017.4
20260903143025 87 242 2.0 6.0 0.00 0.00 0.00 79 1017.4
20260903141523 87 275 1.0 6.0 0.00 0.00 0.00 80 1017.6
20260903140018 86 243 0.0 5.0 0.00 0.00 0.00 81 1017.6
20260903134516 85 241 1.0 6.0 0.00 0.00 0.00 81 1017.6
20260903133018 85 245 1.0 5.0 0.00 0.00 0.00 81 1017.6
20260903131512 85 276 0.0 2.0 0.00 0.00 0.00 81 1017.7
20260903130008 84 152 0.0 0.0 0.00 0.00 0.00 85 1017.6
20260903124515 81 152 0.0 2.0 0.00 0.00 0.00 86 1017.5
20260903123004 79 142 0.0 0.0 0.00 0.00 0.00 88 1017.4
20260903121502 79 142 0.0 0.0 0.00 0.00 0.00 87 1017.4
20260903120104 0 0.0 0.0 0.00 0.00 0.00 1017.4
20260903114550 0 0.0 0.0 0.00 0.00 0.00 1017.2
20260903113045 0 0.0 0.0 0.00 0.00 0.00 1017.3
20260903111543 0 0.0 0.0 0.00 0.00 0.00 1017.2
20260903110040 0 0.0 0.0 0.00 0.00 0.00 1017.2
20260903104530 0 0.0 0.0 0.00 0.00 0.00 1017.1
20260903103028 0 0.0 0.0 0.00 0.00 0.00 1016.8
20260903101534 0 145 1.0 3.0 0.00 0.00 0.00 1016.9
20260903100016 80 156 0.0 3.0 0.00 0.00 0.00 85 1016.8
20260903094512 80 164 1.0 2.0 0.00 0.00 0.00 85 1016.8
20260903093013 80 167 0.0 2.0 0.00 0.00 0.00 85 1016.7
20260903091512 80 156 0.0 3.0 0.00 0.00 0.00 85 1016.7
20260903090006 80 161 0.0 2.0 0.00 0.00 0.00 85 1016.7
20260903084504 80 181 0.0 1.0 0.00 0.00 0.00 86 1016.8
20260903083002 80 168 1.0 3.0 0.00 0.00 0.00 85 1016.7
20260903081602 80 163 0.0 3.0 0.00 0.00 0.00 85 1016.7
20260903080056 81 163 1.0 2.0 0.00 0.00 0.00 85 1016.6
20260903074554 81 163 0.0 2.0 0.00 0.00 0.00 85 1016.5